User: anonymous   Login
Location: Bottenau
(48.5138°N, 8.0462°E)
Time: 11:45:07
(UTC+00:00)
Language:

SME Rocket - Orbit

View from above orbital plane
View from above orbital plane
View from above satellite
View from above satellite

Ground track
Ground track

The orbit data is extracted from the following two-line orbital elements,

1 12889U 81100C   21173.49850358  .00000031  00000-0  36954-4 0  9999
2 12889  99.8620   2.2110 1316441 337.1449  63.1830 12.18068420759511
Epoch (UTC): 22 June 2021 11:57:50
Eccentricity: 0.1316441
inclination: 99.8620°
perigee height: 550 km
apogee height: 2651 km
right ascension of ascending node: 2.2110°
argument of perigee: 337.1449°
revolutions per day: 12.18068420
mean anomaly at epoch: 63.1830°
orbit number at epoch: 75951

The dashed part of the orbit path shows where the satellite is in the earth's shadow,  

DLR